, AK

(GMT )
Shemya

Weather History for PASY - November, 2011

Change the Weather History Date:

Saturday, November 19, 2011

  Actual Average Record
Temperature  
Mean Temperature 37 °F -  
Max Temperature 39 °F 38 °F 46 °F (2006)
Min Temperature 35 °F 31 °F 21 °F (1971)
Degree Days  
Heating Degree Days 28    
Moisture  
Dew Point 33 °F    
Average Humidity 87    
Maximum Humidity 100    
Minimum Humidity 70    
Precipitation  
Precipitation 0.00 in - - ()
Sea Level Pressure  
Sea Level Pressure 29.70 in    
Wind  
Wind Speed 24 mph (West)    
Max Wind Speed 33 mph    
Max Gust Speed 38 mph    
Visibility 10 miles    
Events Rain    
Averages and records for this station are not official NWS values.
T = Trace of Precipitation, MM = Missing Value Source: NWS Daily Summary

Daily Weather History Graph

Daily Weather History Graph

Search for Another Location

Airport or City:

Trip Planner

Search our weather history database for the weather conditions in past years. The results will help you decide how hot, cold, wet, or windy it might be!

Date:

Astronomy

Nov. 18, 2011 Rise Set
Actual Time 9:51 AM HST 6:25 PM HST
Civil Twilight 9:12 AM HST 7:04 PM HST
Nautical Twilight 8:30 AM HST 7:46 PM HST
Astronomical Twilight 7:50 AM HST 8:26 PM HST
Moon 2:45 AM HST (11/19) 3:31 PM HST (11/19)
Length of Visible Light 9h 51m
Length of Day
8h 33m
Waning Crescent, 36% of the Moon is Illuminated
Nov 19
Waning Crescent
Nov 24
New
Dec 1
First Quarter
Dec 10
Full
Dec 17
Last Quarter

Hourly Weather History & Observations

Time (HST) Temp. Windchill Dew Point Humidity Pressure Visibility Wind Dir Wind Speed Gust Speed Precip Events Conditions
12:06 AM 35.6 °F 22.5 °F 35.6 °F 100% 29.44 in 10.0 mi WSW 29.9 mph 36.8 mph N/A Rain Light Rain
12:13 AM 35.6 °F 22.5 °F 35.6 °F 100% 29.44 in 10.0 mi WSW 29.9 mph 38.0 mph N/A Rain Light Rain
12:54 AM 37.4 °F 25.4 °F 35.6 °F 93% 29.47 in 10.0 mi West 27.6 mph 35.7 mph N/A   Mostly Cloudy
12:56 AM 36.0 °F 23.0 °F 35.1 °F 97% 29.47 in 10.0 mi WSW 29.9 mph 35.7 mph N/A   Mostly Cloudy
1:03 AM 35.6 °F 22.3 °F 33.8 °F 93% 29.47 in 10.0 mi WSW 31.1 mph 36.8 mph N/A   Overcast
1:13 AM 35.6 °F 22.7 °F 33.8 °F 93% 29.48 in 10.0 mi West 28.8 mph 35.7 mph N/A Rain Light Rain
1:23 AM 35.6 °F 24.2 °F 33.8 °F 93% 29.49 in 10.0 mi West 21.9 mph 32.2 mph N/A Rain Light Rain
1:56 AM 36.0 °F 22.4 °F 35.1 °F 97% 29.51 in 10.0 mi West 33.4 mph 38.0 mph N/A Rain Light Rain
2:56 AM 36.0 °F 23.5 °F 34.0 °F 93% 29.54 in 10.0 mi West 27.6 mph 34.5 mph N/A Rain Light Rain
3:40 AM 35.6 °F 23.0 °F 33.8 °F 93% 29.54 in 10.0 mi West 27.6 mph 33.4 mph N/A   Overcast
3:56 AM 36.0 °F 24.4 °F 33.1 °F 89% 29.55 in 10.0 mi West 23.0 mph - N/A   Mostly Cloudy
4:56 AM 37.0 °F 25.9 °F 33.1 °F 86% 29.57 in 10.0 mi West 23.0 mph 28.8 mph N/A   Overcast
5:56 AM 37.0 °F 26.2 °F 33.1 °F 86% 29.60 in 10.0 mi West 21.9 mph 28.8 mph N/A   Overcast
6:48 AM 35.6 °F 25.5 °F 32.0 °F 87% 29.62 in 10.0 mi West 17.3 mph - N/A   Mostly Cloudy
6:56 AM 36.0 °F 26.0 °F 32.0 °F 86% 29.62 in 10.0 mi West 17.3 mph - N/A   Scattered Clouds
7:56 AM 36.0 °F 25.0 °F 32.0 °F 86% 29.65 in 10.0 mi West 20.7 mph 31.1 mph N/A   Mostly Cloudy
8:38 AM 35.6 °F 24.5 °F 33.8 °F 93% 29.67 in 10.0 mi West 20.7 mph 26.5 mph N/A   Mostly Cloudy
8:45 AM 35.6 °F 25.5 °F 33.8 °F 93% 29.67 in 10.0 mi West 17.3 mph - N/A   Overcast
8:56 AM 36.0 °F 24.7 °F 33.1 °F 89% 29.68 in 10.0 mi West 21.9 mph - N/A   Overcast
9:53 AM 35.6 °F 25.2 °F 33.8 °F 93% 29.70 in 10.0 mi West 18.4 mph - N/A   Overcast
9:56 AM 35.1 °F 24.1 °F 33.1 °F 92% 29.70 in 10.0 mi West 19.6 mph - N/A   Overcast
10:38 AM 37.4 °F 26.6 °F 32.0 °F 81% 29.72 in 10.0 mi West 21.9 mph 28.8 mph N/A Rain Light Rain
10:56 AM 37.0 °F 27.4 °F 32.0 °F 82% 29.73 in 10.0 mi West 17.3 mph - N/A   Scattered Clouds
11:51 AM 37.4 °F 27.5 °F 33.8 °F 87% 29.75 in 10.0 mi West 18.4 mph - N/A   Mostly Cloudy
11:56 AM 37.9 °F 27.6 °F 33.1 °F 83% 29.75 in 10.0 mi West 20.7 mph - N/A   Mostly Cloudy
12:17 PM 37.4 °F 27.5 °F 33.8 °F 87% 29.75 in 10.0 mi West 18.4 mph - N/A   Mostly Cloudy
12:56 PM 39.0 °F 29.0 °F 32.0 °F 76% 29.77 in 10.0 mi West 20.7 mph - N/A   Mostly Cloudy
1:56 PM 39.0 °F 29.9 °F 33.1 °F 79% 29.78 in 10.0 mi West 17.3 mph - N/A   Mostly Cloudy
2:56 PM 39.9 °F 30.5 °F 30.9 °F 70% 29.79 in 10.0 mi West 19.6 mph - N/A   Scattered Clouds
3:56 PM 39.9 °F 30.2 °F 32.0 °F 73% 29.80 in 10.0 mi WSW 20.7 mph - N/A   Mostly Cloudy
4:56 PM 37.9 °F 27.6 °F 34.0 °F 86% 29.80 in 10.0 mi WNW 20.7 mph - N/A   Overcast
5:36 PM 37.4 °F 27.5 °F 32.0 °F 81% 29.81 in 10.0 mi West 18.4 mph - N/A   Mostly Cloudy
5:45 PM 37.4 °F 26.9 °F 32.0 °F 81% 29.81 in 10.0 mi West 20.7 mph 26.5 mph N/A   Mostly Cloudy
5:56 PM 39.0 °F 28.3 °F 34.0 °F 82% 29.81 in 10.0 mi WNW 24.2 mph - N/A   Overcast
6:07 PM 37.4 °F 26.4 °F 32.0 °F 81% 29.81 in 10.0 mi WNW 23.0 mph - N/A   Overcast
6:47 PM 37.4 °F 26.4 °F 33.8 °F 87% 29.83 in 10.0 mi WNW 23.0 mph 27.6 mph N/A Rain Light Rain
6:56 PM 37.0 °F 26.2 °F 34.0 °F 89% 29.83 in 10.0 mi WNW 21.9 mph - N/A Rain Light Rain
7:56 PM 36.0 °F 25.3 °F 34.0 °F 93% 29.83 in 10.0 mi WNW 19.6 mph - N/A Rain Light Rain
8:23 PM 35.6 °F 26.2 °F 33.8 °F 93% 29.83 in 10.0 mi West 15.0 mph - N/A   Scattered Clouds
8:39 PM 35.6 °F 26.6 °F 33.8 °F 93% 29.84 in 10.0 mi WNW 13.8 mph - N/A   Mostly Cloudy
8:46 PM 35.6 °F 26.6 °F 33.8 °F 93% 29.84 in 10.0 mi WNW 13.8 mph - N/A   Scattered Clouds
8:56 PM 36.0 °F 26.3 °F 33.1 °F 89% 29.84 in 10.0 mi WNW 16.1 mph - N/A   Scattered Clouds
9:19 PM 37.4 °F 28.2 °F 33.8 °F 87% 29.84 in 10.0 mi West 16.1 mph - N/A   Mostly Cloudy
9:56 PM 37.0 °F 28.9 °F 33.1 °F 86% 29.85 in 10.0 mi WNW 12.7 mph - N/A   Mostly Cloudy
10:12 PM 37.4 °F 28.5 °F 30.2 °F 75% 29.85 in 10.0 mi NW 15.0 mph - N/A   Scattered Clouds
10:40 PM 35.6 °F 27.5 °F 30.2 °F 81% 29.85 in 10.0 mi NW 11.5 mph - N/A   Overcast
10:56 PM 37.0 °F 29.8 °F 30.9 °F 79% 29.86 in 10.0 mi NW 10.4 mph - N/A   Mostly Cloudy
11:56 PM 37.0 °F 29.3 °F 30.0 °F 76% 29.87 in 10.0 mi NW 11.5 mph - N/A   Mostly Cloudy